Regional Weather Roundup
Issued by NWS

Home | Current Version | Previous Version | Text Only | Print | Product List | Glossary On
Versions: 1 2 3 4 5 6 7 8 9 10 11 12 13 14 15 16 17 18 19 20 21 22 23 24 25 26 27 28 29 30 31 32 33 34 35 36 37 38 39 40 41 42 43 44 45 46 47 48 49 50
000
ASUS45 KREV 191510
RWRNV
NEVADA REGIONAL WEATHER ROUNDUP
NATIONAL WEATHER SERVICE RENO NV
800 AM PDT SUN APR 19 2015

NOTE: "FAIR" INDICATES FEW OR NO CLOUDS BELOW 12,000 FEET WITH NO
SIGNIFICANT WEATHER AND/OR OBSTRUCTIONS TO VISIBILITY.

NVZ001-003-004-191600-
WESTERN NEVADA

CITY           SKY/WX    TMP DP  RH WIND       PRES   REMARKS
RENO           MOSUNNY   49  23  36 W3        30.17R
CARSON CITY    FAIR      46  19  34 CALM      30.18S
MINDEN         FAIR      45  23  42 N3        30.19
SLIDE MTN        N/A     34  10  37 NE17        N/A
PYRAMID LAKE     N/A     55 N/A N/A SW3         N/A
FALLON         SUNNY     46  13  26 CALM      30.15S
LOVELOCK       SUNNY     42  10  27 CALM      30.16R
HAWTHORNE      SUNNY     54  27  35 CALM      30.16R
$$

NVZ002-CAZ072-073-191600-
NORTHERN AND CENTRAL SIERRA

CITY           SKY/WX    TMP DP  RH WIND       PRES   REMARKS
S. LAKE TAHOE  SUNNY     39  26  59 S3        30.19R
TRUCKEE        SUNNY     32  27  80 CALM      30.20R
SQUAW VLY 8000   N/A     43  21  42 E5          N/A
SUSANVILLE     SUNNY    N/A N/A N/A NW3         N/A
BLUE CANYON    SUNNY     56  18  22 E9        30.11R
MAMMOTH LAKES  FAIR      46  18  31 W8        30.22S
BRIDGEPORT     FAIR      32  22  66 CALM      30.21S
$$

NVZ030-031-036-191600-
NORTHERN NEVADA

CITY           SKY/WX    TMP DP  RH WIND       PRES   REMARKS
ELKO           SUNNY     39  16  39 CALM      30.16S
WINNEMUCCA     SUNNY     40  14  34 S6        30.17S
WENDOVER       SUNNY     54  19  26 CALM      30.11R
$$

NVZ035-037-191600-
CENTRAL NEVADA

CITY           SKY/WX    TMP DP  RH WIND       PRES   REMARKS
ELY            SUNNY     39  15  37 S3        30.17R
EUREKA           N/A     41  16  36 SW5       30.17S
$$

NVZ013-014-191600-
SOUTH CENTRAL NEVADA

CITY           SKY/WX    TMP DP  RH WIND       PRES   REMARKS
TONOPAH        SUNNY     51  16  24 N10       30.14S
$$

NVZ017-020-022-191600-
SOUTHERN NEVADA

CITY           SKY/WX    TMP DP  RH WIND       PRES   REMARKS
LAS VEGAS      MOSUNNY   69  17  13 S5        29.92R
N. LAS VEGAS   SUNNY     66  17  15 CALM      29.95R
NELLIS AFB     SUNNY     64  20  18 E1        29.94R
HENDERSON      SUNNY     67  20  16 S5        29.98R
MERCURY        SUNNY     67  18  15 NE17      30.00
$$



USA.gov is the U.S. government's official web portal to all federal, state and local government web resources and services.